This is the latest recevied weather packets stored in our database for station/object AC5CM. If no packets are shown the sender has not sent any weather packets the latest 10 day(s).
| Time | Temp. | Humidity | Pressure | Rain* | Wind** | Luminosity | Snow |
|---|---|---|---|---|---|---|---|
| 1777329383 | 30.56° C | 68% | 1011.3 hPa | 0 mm | - | - | - |
| 1777329080 | 30.56° C | 68% | 1011.1 hPa | 0 mm | - | - | - |
| 1777328777 | 30.56° C | 70% | 1010.9 hPa | 0 mm | - | - | - |
| 1777328475 | 31.11° C | 68% | 1011 hPa | 0 mm | - | - | - |
| 1777328174 | 30.56° C | 68% | 1011.1 hPa | 0 mm | - | - | - |
| 1777327872 | 30.56° C | 69% | 1011.1 hPa | 0 mm | - | - | - |
| 1777327569 | 30° C | 70% | 1011 hPa | 0 mm | - | - | - |
| 1777327266 | 30° C | 70% | 1011.3 hPa | 0 mm | - | - | - |
| 1777326963 | 30° C | 70% | 1011.2 hPa | 0 mm | - | - | - |
| 1777326661 | 30° C | 70% | 1011.4 hPa | 0 mm | - | - | - |
| 1777326357 | 30° C | 72% | 1011.3 hPa | 0 mm | - | - | - |
| 1777326055 | 30° C | 70% | 1011.2 hPa | 0 mm | - | - | - |
| 1777325753 | 30.56° C | 69% | 1011.4 hPa | 0 mm | - | - | - |
| 1777325451 | 31.11° C | 69% | 1011.3 hPa | 0 mm | - | - | - |
| 1777325148 | 30.56° C | 69% | 1011.1 hPa | 0 mm | - | - | - |
| 1777324844 | 30° C | 70% | 1011.2 hPa | 0 mm | - | - | - |
| 1777324543 | 30.56° C | 69% | 1011.1 hPa | 0 mm | - | - | - |
| 1777324239 | 31.11° C | 68% | 1011 hPa | 0 mm | - | - | - |
| 1777323938 | 30.56° C | 69% | 1011.1 hPa | 0 mm | - | - | - |
| 1777323634 | 30.56° C | 69% | 1011.3 hPa | 0 mm | - | - | - |
| 1777323332 | 31.11° C | 68% | 1011.3 hPa | 0 mm | - | - | - |
| 1777323030 | 31.11° C | 71% | 1011.5 hPa | 0 mm | - | - | - |
| 1777322727 | 30.56° C | 68% | 1011.4 hPa | 0 mm | - | - | - |
| 1777322425 | 31.11° C | 68% | 1011.5 hPa | 0 mm | - | - | - |
| 1777322121 | 31.11° C | 67% | 1011.6 hPa | 0 mm | - | - | - |
* Rain latest hour (hover to see other rain measurements)
** Current wind speed in m/s (hover to see current wind gust speed)